Home   Weather   Monticello   Past weeks

Flag for USA Past Weather in Monticello, Kentucky, USA — Yesterday and Last 2 Weeks

Now
48 °F

Clear.


Feels Like: 48 °F
Forecast: 54 / 64 °F
Wind: No wind

Location: London-Corbin Airport-Magee Field

Current Time: Jan 21, 2017 at 6:05:59 am

Latest Report: Jan 21, 2017 at 4:53 am


Visibility: 10 mi

Pressure: 29.78 "Hg

Humidity: 89%

Dew Point: 45 °F

Location of MonticelloLocation

Past Weather in Monticello — Graph

°F

Monticello Temperature Yesterday

Maximum temperature yesterday: 65 °F (at 2:53 pm)
Minimum temperature yesterday: 49 °F (at 10:53 pm)
Average temperature yesterday: 56 °F

High & Low Weather Summary for the Past Weeks

 TemperatureHumidityPressure
High66 °F (Jan 12, 1:53 pm)97% (Jan 15, 8:53 pm)30.78 "Hg (Jan 15, 8:53 pm)
Low8 °F (Jan 7, 8:53 am)24% (Jan 9, 12:53 pm)29.67 "Hg (Jan 20, 2:53 am)
Average43 °F76%30.24 "Hg
* Reported Jan 6 4:35 am — Jan 21 4:53 am, Monticello, Weather by CustomWeather, © 2017

Note: Actual official high and low records may vary slightly from our data, if they occured in-between our weather recording intervals... More about our weather records

Advertising

Monticello Weather History for the Previous 24 Hours

Scroll right to see more
 ConditionsComfort  
Time TempWeatherWind HumidityBarometerVisibility
4:53 am
Sat, Jan 21
48 °FClear.No wind89%29.78 "Hg10 mi
3:53 am48 °FClear.No wind86%29.80 "Hg10 mi
2:53 am48 °FClear.No wind86%29.80 "Hg10 mi
1:53 am49 °FClear.No wind84%29.79 "Hg10 mi
12:53 am50 °FClear.No wind83%29.80 "Hg10 mi
11:53 pm
Fri, Jan 20
50 °FClear.No wind83%29.80 "Hg10 mi
10:53 pm49 °FClear.No wind84%29.80 "Hg10 mi
9:53 pm50 °FClear.No wind83%29.80 "Hg10 mi
8:53 pm53 °FPassing clouds.3 mph77%29.79 "Hg10 mi
7:53 pm53 °FOvercast.No wind77%29.80 "Hg10 mi
6:53 pm54 °FClear.No wind72%29.78 "Hg10 mi
5:53 pm61 °FClear.No wind56%29.76 "Hg10 mi
4:53 pm64 °FSunny.6 mph50%29.75 "Hg10 mi
3:53 pm64 °FPassing clouds.15 mph56%29.75 "Hg10 mi
2:53 pm65 °FBroken clouds.14 mph56%29.74 "Hg10 mi
1:53 pm64 °FPartly sunny.10 mph61%29.75 "Hg10 mi
12:53 pm62 °FBroken clouds.12 mph65%29.77 "Hg10 mi
11:53 am61 °FScattered clouds.8 mph72%29.80 "Hg10 mi
11:33 am60 °FMostly cloudy.9 mph75%29.82 "Hg10 mi
10:53 am59 °FPartly sunny.13 mph78%29.82 "Hg10 mi
10:08 am57 °FPartly sunny.7 mph83%29.83 "Hg10 mi
9:53 am56 °FOvercast.6 mph87%29.81 "Hg10 mi
9:02 am54 °FMostly cloudy.5 mph90%29.80 "Hg10 mi
8:35 am53 °FMore clouds than sun.3 mph93%29.79 "Hg10 mi
7:53 am51 °FOvercast.No wind92%29.76 "Hg10 mi
7:24 am52 °FPassing clouds.3 mph89%29.76 "Hg10 mi
6:53 am52 °FPassing clouds.3 mph93%29.75 "Hg10 mi
6:28 am53 °FPassing clouds.5 mph89%29.74 "Hg10 mi
Weather by CustomWeather, © 2017

See weather overviewHow to use our weather pages